1509361200.83,41023,8.63,72124.8,-12.53,-14.61,-14.47,0,*65
1509361202.05,41024,8.63,72122.0,-12.55,-14.29,-14.29,0,*60
1509361203.27,41025,8.63,72122.5,-12.55,-14.29,-14.29,0,*61
1509361204.51,41026,8.63,72118.8,-12.53,-14.29,-14.37,0,*6B
1509361205.76,41027,8.63,72116.3,-12.53,-14.29,-14.23,0,*6F
1509361207.01,41028,8.63,72114.5,-12.53,-14.37,-14.37,0,*6A
1509361208.28,41029,8.63,72114.3,-12.53,-14.37,-14.47,0,*6C
1509361209.59,41030,8.63,72108.8,-12.53,-14.47,-14.47,0,*63
1509361210.88,41031,8.63,72102.0,-12.53,-14.75,-14.75,0,*62
1509361212.11,41032,8.63,72096.0,-12.55,-14.89,-14.89,0,*67
1509361213.41,41033,8.63,72090.5,-12.53,-14.83,-14.83,0,*60
1509361214.65,41034,8.63,72080.5,-12.55,-14.75,-14.69,0,*6C
1509361215.88,41035,8.63,72078.0,-12.55,-14.69,-14.75,0,*6D
1509361217.09,41036,8.63,72082.3,-12.55,-14.69,-14.61,0,*6B
1509361218.34,41037,8.63,72092.0,-12.55,-14.89,-14.83,0,*68
1509361219.56,41038,8.63,72100.0,-12.55,-15.11,-15.11,0,*6D
1509361220.86,41039,8.63,72114.8,-12.57,-14.47,-14.47,0,*6E
1509361222.12,41040,8.63,72116.0,-12.57,-14.29,-14.43,0,*6C
1509361223.36,41041,8.63,72126.8,-12.55,-14.69,-14.75,0,*6E
1509361224.63,41042,8.63,72114.5,-12.57,-15.43,-15.63,0,*60
1509361225.88,41043,8.63,72106.5,-12.57,-15.25,-15.25,0,*63
1509361227.13,41044,8.63,72070.5,-12.59,-15.39,-15.49,0,*6D
1509361228.35,41045,8.63,72044.8,-12.59,-15.67,-15.67,0,*6B
1509361229.63,41046,8.63,72034.0,-12.59,-15.39,-15.39,0,*68
1509361230.85,41047,8.63,72018.5,-12.63,-15.63,-15.63,0,*60
1509361232.13,41048,8.63,71996.8,-12.65,-15.21,-15.21,0,*69
1509361233.4,41049,8.63,72000.0,-12.63,-14.79,-14.75,0,*62
1509361234.65,41050,8.63,72010.3,-12.65,-14.65,-14.65,0,*60
1509361235.94,41051,8.63,72010.3,-12.65,-14.51,-14.51,0,*61
1509361237.21,41052,8.63,72018.0,-12.63,-14.43,-14.43,0,*64
1509361238.5,41053,8.63,72018.8,-12.63,-14.47,-14.55,0,*66
1509361239.79,41054,8.63,72024.3,-12.65,-14.55,-14.55,0,*64
1509361241.03,41055,8.63,72030.8,-12.65,-14.65,-14.65,0,*65
1509361242.31,41056,8.63,72038.5,-12.63,-14.51,-14.51,0,*60
1509361243.61,41057,8.63,72042.5,-12.65,-14.51,-14.55,0,*63
1509361244.88,41058,8.63,72042.0,-12.63,-14.43,-14.43,0,*6E
1509361246.13,41059,8.63,72042.3,-12.63,-14.61,-14.51,0,*6C
1509361247.4,41060,8.63,72042.5,-12.65,-14.55,-14.65,0,*60
1509361248.67,41061,8.63,72044.5,-12.63,-14.43,-14.43,0,*64
1509361249.95,41062,8.63,72036.3,-12.63,-14.47,-14.51,0,*60
1509361251.24,41063,8.63,72034.0,-12.63,-14.47,-14.47,0,*66
1509361252.54,41064,8.63,72038.3,-12.65,-14.47,-14.55,0,*64
1509361253.76,41065,8.63,72024.0,-12.63,-14.33,-14.33,0,*60
1509361255.01,41066,8.63,72024.8,-12.63,-14.43,-14.33,0,*64
1509361256.25,41067,8.63,72030.8,-12.65,-14.37,-14.37,0,*64
1509361257.48,41068,8.63,72028.5,-12.63,-14.23,-14.23,0,*6D
1509361258.73,41069,8.63,72038.5,-12.65,-14.37,-14.37,0,*6A
1509361259.95,41070,8.63,72030.8,-12.63,-14.33,-14.33,0,*64
1509361261.17,41071,8.63,72030.3,-12.63,-14.29,-14.29,0,*65
1509361262.39,41072,8.63,72028.5,-12.63,-14.29,-14.19,0,*65
1509361263.67,41073,8.63,72026.5,-12.63,-14.05,-14.05,0,*67
1509361264.92,41074,8.63,72020.8,-12.65,-14.19,-14.19,0,*66
1509361266.14,41075,8.63,72030.0,-12.63,-14.29,-14.29,0,*61
1509361267.37,41076,8.63,72034.0,-12.63,-14.29,-14.29,0,*62
1509361268.61,41077,8.63,72040.0,-12.65,-14.23,-14.33,0,*64
1509361269.84,41078,8.63,72050.3,-12.63,-14.29,-14.29,0,*6C
1509361271.1,41079,8.63,72038.5,-12.63,-14.93,-15.01,0,*67
1509361272.35,41080,8.63,72036.0,-12.63,-14.89,-14.93,0,*60
1509361273.58,41081,8.63,72036.5,-12.63,-14.89,-14.89,0,*6A
1509361274.86,41082,8.63,72040.3,-12.65,-14.93,-14.93,0,*6F
1509361276.11,41083,8.63,72036.8,-12.65,-14.65,-14.65,0,*6E
1509361277.35,41084,8.63,72042.3,-12.65,-14.37,-14.37,0,*69
1509361278.59,41085,8.63,72042.5,-12.63,-14.33,-14.43,0,*69
1509361279.84,41086,8.63,72044.3,-12.65,-14.23,-14.19,0,*62
1509361281.09,41087,8.63,72044.5,-12.65,-14.19,-14.33,0,*62
1509361282.39,41088,8.63,72052.5,-12.65,-13.97,-13.97,0,*65
1509361283.62,41089,8.63,72060.5,-12.63,-14.19,-14.15,0,*6E
1509361284.87,41090,8.63,72062.8,-12.65,-14.23,-14.23,0,*6C
1509361286.11,41091,8.63,72062.8,-12.65,-14.33,-14.23,0,*6C
1509361287.36,41092,8.63,72066.0,-12.63,-14.33,-14.05,0,*6D
1509361288.58,41093,8.63,72064.8,-12.63,-14.29,-14.19,0,*6A
1509361289.83,41094,8.63,72064.8,-12.63,-14.43,-14.19,0,*61
1509361291.07,41095,8.63,72072.5,-12.65,-14.33,-14.19,0,*61
1509361292.35,41096,8.63,72078.8,-12.65,-14.47,-14.23,0,*68
1509361293.6,41097,8.63,72086.3,-12.65,-14.37,-14.23,0,*6E
1509361294.82,41098,8.63,72088.8,-12.63,-14.29,-14.29,0,*62
1509361296.1,41099,8.63,72088.0,-12.63,-14.05,-14.05,0,*63
1509361297.38,41100,8.63,72094.8,-12.63,-14.05,-14.05,0,*62
1509361298.63,41101,8.63,72098.0,-12.65,-14.23,-14.23,0,*65
1509361299.87,41102,8.63,72096.5,-12.65,-14.19,-14.19,0,*66
1509361301.1,41103,8.63,72100.5,-12.63,-14.29,-14.29,0,*61
1509361302.32,41104,8.63,72106.0,-12.63,-14.29,-14.29,0,*66
1509361303.54,41105,8.63,72110.5,-12.59,-14.33,-14.33,0,*6E
1509361304.77,41106,8.63,72114.8,-12.63,-14.19,-14.15,0,*68
1509361306.03,41107,8.63,72120.3,-12.63,-14.05,-14.15,0,*64
1509361307.28,41108,8.63,72116.5,-12.63,-14.15,-14.05,0,*6B
1509361308.5,41109,8.63,72122.3,-12.63,-14.29,-14.19,0,*68
1509361309.74,41110,8.63,72126.0,-12.63,-14.19,-14.15,0,*6F
1509361310.96,41111,8.63,72126.3,-12.63,-14.29,-14.15,0,*6D
1509361312.21,41112,8.63,72130.3,-12.63,-14.05,-13.93,0,*69
1509361313.44,41113,8.63,72128.8,-12.63,-14.19,-14.15,0,*6C
1509361314.69,41114,8.63,72128.0,-12.63,-14.19,-14.05,0,*6A
1509361315.94,41115,8.63,72130.3,-12.59,-14.29,-14.05,0,*61
1509361317.19,41116,8.63,72132.3,-12.59,-14.19,-14.05,0,*61
1509361318.47,41117,8.63,72134.5,-12.59,-13.97,-14.01,0,*65
1509361319.7,41118,8.63,72132.5,-12.59,-14.15,-14.29,0,*6D
1509361320.98,41119,8.63,72132.5,-12.59,-14.05,-14.05,0,*63
1509361322.24,41120,8.63,72132.3,-12.59,-14.15,-14.05,0,*68
1509361323.48,41121,8.63,72132.0,-12.59,-13.93,-14.01,0,*64
1509361324.75,41122,8.63,72128.0,-12.59,-13.87,-13.79,0,*6A
1509361326.04,41123,8.63,72130.0,-12.57,-13.83,-13.83,0,*64
1509361327.29,41124,8.63,72132.3,-12.59,-13.93,-13.97,0,*69
1509361328.57,41125,8.63,72130.8,-12.57,-14.11,-13.97,0,*6B
1509361329.84,41126,8.63,72130.0,-12.59,-14.05,-14.05,0,*6F
1509361331.14,41127,8.63,72128.8,-12.57,-13.87,-13.97,0,*61
1509361332.44,41128,8.63,72130.8,-12.57,-14.01,-13.97,0,*67
1509361333.72,41129,8.63,72126.0,-12.59,-14.05,-14.01,0,*64
1509361334.97,41130,8.63,72126.8,-12.59,-14.01,-13.93,0,*64
1509361336.25,41131,8.63,72124.3,-12.57,-14.11,-14.01,0,*66
1509361337.48,41132,8.63,72126.5,-12.57,-14.61,-14.69,0,*6C
1509361338.72,41133,8.63,72134.3,-12.57,-14.69,-14.61,0,*6D
1509361339.96,41134,8.63,72138.0,-12.59,-14.65,-14.75,0,*6D
1509361341.22,41135,8.63,72138.8,-12.59,-14.93,-15.01,0,*67
1509361342.47,41136,8.63,72134.5,-12.59,-14.89,-15.01,0,*6F
1509361343.72,41137,8.63,72136.5,-12.59,-14.89,-14.79,0,*60
1509361345.0,41138,8.63,72128.3,-12.63,-14.47,-14.47,0,*69
1509361346.25,41139,8.63,72124.8,-12.63,-14.33,-14.43,0,*6F
1509361347.53,41140,8.63,72118.8,-12.63,-14.51,-14.51,0,*66
1509361348.79,41141,8.63,72122.3,-12.63,-14.93,-14.79,0,*63
1509361350.04,41142,8.63,72108.0,-12.63,-15.07,-14.93,0,*68
1509361351.34,41143,8.63,72110.8,-12.65,-14.83,-14.79,0,*66
1509361352.63,41144,8.63,72102.3,-12.65,-15.39,-15.35,0,*68
1509361353.86,41145,8.63,72090.8,-12.63,-15.49,-15.49,0,*63
1509361355.11,41146,8.63,72082.8,-12.65,-15.67,-15.53,0,*61
1509361356.35,41147,8.63,72074.5,-12.65,-15.67,-15.53,0,*60
1509361357.57,41148,8.63,72064.0,-12.67,-15.63,-15.67,0,*6E
1509361358.79,41149,8.63,72044.3,-12.67,-15.67,-15.71,0,*6C
1509361360.04,41150,8.63,72048.5,-12.67,-15.89,-15.75,0,*60
1509361361.29,41151,8.63,72024.8,-12.67,-15.49,-15.39,0,*65
1509361362.56,41152,8.63,72034.3,-12.69,-15.43,-15.39,0,*62
1509361363.8,41153,8.63,72026.3,-12.73,-15.29,-15.21,0,*6D
1509361365.03,41154,8.63,72024.0,-12.73,-15.11,-15.01,0,*63
1509361366.28,41155,8.63,72018.0,-12.73,-15.01,-14.93,0,*69
1509361367.52,41156,8.63,72024.8,-12.73,-15.07,-15.01,0,*66
1509361368.77,41157,8.63,72020.8,-12.73,-15.01,-14.93,0,*6B
1509361370.01,41158,8.63,72020.3,-12.69,-14.97,-14.89,0,*6A
1509361371.21,41159,8.63,72024.5,-12.69,-14.69,-14.61,0,*6C
1509361372.46,41160,8.63,72026.0,-12.69,-14.51,-14.37,0,*6E
1509361373.67,41161,8.63,72022.8,-12.73,-14.65,-14.61,0,*60
1509361374.93,41162,8.63,72030.0,-12.69,-14.43,-14.43,0,*6C
1509361376.14,41163,8.63,72046.5,-12.73,-14.37,-14.29,0,*69
1509361377.37,41164,8.63,72052.8,-12.67,-14.23,-14.15,0,*61
1509361378.59,41165,8.63,72070.0,-12.67,-14.37,-14.29,0,*6A
1509361379.82,41166,8.63,72064.5,-12.67,-14.15,-14.15,0,*66
1509361381.07,41167,8.63,72068.3,-12.67,-14.11,-14.01,0,*66
1509361382.34,41168,8.63,72070.3,-12.67,-14.01,-13.83,0,*65
1509361383.59,41169,8.63,72078.3,-12.67,-13.97,-13.69,0,*68
1509361384.85,41170,8.63,72080.8,-12.65,-13.79,-13.65,0,*6E
1509361386.11,41171,8.63,72090.5,-12.65,-13.93,-13.79,0,*66
1509361387.39,41172,8.63,72098.8,-12.65,-14.19,-13.97,0,*60
1509361388.64,41173,8.63,72104.0,-12.63,-14.05,-13.93,0,*6E
1509361389.88,41174,8.63,72114.0,-12.65,-14.23,-14.19,0,*6E
1509361391.12,41175,8.63,72126.8,-12.65,-14.33,-14.19,0,*6E
1509361392.35,41176,8.63,72134.0,-12.63,-14.19,-14.15,0,*6F
1509361393.6,41177,8.63,72138.8,-12.63,-14.01,-13.93,0,*6E
1509361394.89,41178,8.63,72142.3,-12.65,-14.05,-13.79,0,*67
1509361396.14,41179,8.63,72138.5,-12.63,-13.79,-13.65,0,*61
1509361397.36,41180,8.63,72142.3,-12.63,-13.65,-13.51,0,*6D
1509361398.58,41181,8.63,72144.5,-12.59,-13.65,-13.51,0,*65
1509361399.8,41182,8.63,72144.3,-12.59,-13.51,-13.47,0,*66
1509361401.04,41183,8.63,72144.3,-12.57,-13.55,-13.43,0,*69
1509361402.27,41184,8.63,72146.8,-12.57,-13.69,-13.47,0,*65
1509361403.57,41185,8.63,72142.5,-12.57,-14.01,-13.83,0,*65
1509361404.81,41186,8.63,72140.0,-12.55,-13.69,-13.61,0,*61
1509361406.09,41187,8.63,72142.8,-12.53,-13.73,-13.61,0,*6D
1509361407.33,41188,8.63,72138.8,-12.53,-13.69,-13.55,0,*6E
1509361408.63,41189,8.63,72134.5,-12.53,-13.83,-13.61,0,*6C
1509361409.88,41190,8.63,72124.5,-12.55,-14.11,-13.83,0,*62
1509361411.18,41191,8.63,72120.3,-12.53,-14.01,-13.87,0,*60
1509361412.41,41192,8.63,72114.0,-12.51,-13.93,-13.79,0,*6C
1509361413.66,41193,8.63,72100.3,-12.51,-14.19,-13.97,0,*68
1509361414.88,41194,8.63,72098.3,-12.51,-14.23,-14.11,0,*6F
1509361416.12,41195,8.63,72096.0,-12.49,-14.23,-14.11,0,*67
1509361417.37,41196,8.63,72088.5,-12.51,-14.55,-14.33,0,*6C
1509361418.61,41197,8.63,72090.5,-12.49,-14.65,-14.37,0,*63
1509361419.87,41198,8.63,72072.0,-12.51,-14.79,-14.55,0,*6C
1509361421.14,41199,8.63,72056.5,-12.49,-14.79,-14.65,0,*67
1509361422.38,41200,8.63,72038.3,-12.51,-14.69,-14.51,0,*6B
1509361423.61,41201,8.63,72028.8,-12.51,-14.69,-14.55,0,*6E
1509361424.88,41202,8.63,72032.3,-12.51,-14.79,-14.55,0,*6C
1509361426.1,41203,8.56,72026.3,-12.51,-15.11,-15.07,0,*64
1509361427.34,41204,8.63,72026.8,-12.51,-15.11,-14.97,0,*6B
1509361428.57,41205,8.63,72020.5,-12.51,-14.97,-14.69,0,*64
1509361429.81,41206,8.63,72028.0,-12.55,-15.11,-14.83,0,*68
1509361431.06,41207,8.63,72016.0,-12.51,-14.83,-14.65,0,*6F
1509361432.33,41208,8.63,72020.0,-12.51,-14.97,-14.83,0,*6D
1509361433.59,41209,8.63,72022.0,-12.53,-15.01,-14.69,0,*64
1509361434.85,41210,8.63,72018.5,-12.53,-14.75,-14.61,0,*66
1509361436.13,41211,8.63,72020.8,-12.53,-14.83,-14.61,0,*6E
1509361437.4,41212,8.63,72038.8,-12.55,-14.75,-14.55,0,*65
1509361438.65,41213,8.63,72046.3,-12.53,-14.69,-14.43,0,*68
1509361439.9,41214,8.63,72052.8,-12.55,-14.55,-14.29,0,*6A
1509361441.14,41215,8.63,72062.5,-12.53,-14.89,-14.61,0,*60
1509361442.36,41216,8.63,72068.5,-12.55,-14.89,-14.69,0,*6D
1509361443.6,41217,8.63,72074.5,-12.53,-14.89,-14.69,0,*6A
1509361444.87,41218,8.63,72082.8,-12.53,-14.75,-14.61,0,*6E
1509361446.11,41219,8.63,72082.3,-12.55,-14.75,-14.69,0,*61
1509361447.35,41220,8.63,72088.0,-12.53,-14.61,-14.37,0,*63
1509361448.6,41221,8.63,72102.0,-12.55,-14.55,-14.37,0,*63
1509361449.87,41222,8.63,72104.5,-12.53,-14.55,-14.37,0,*66
1509361451.12,41223,8.63,72106.5,-12.53,-14.29,-14.15,0,*6C
1509361452.39,41224,8.63,72110.0,-12.55,-14.47,-14.43,0,*66
1509361453.67,41225,8.63,72114.8,-12.55,-14.47,-14.47,0,*63
1509361454.89,41226,8.63,72114.5,-12.55,-14.29,-14.23,0,*6A
1509361456.12,41227,8.63,72112.5,-12.55,-14.23,-14.23,0,*61
1509361457.34,41228,8.63,72110.5,-12.55,-14.29,-14.29,0,*6E
1509361458.56,41229,8.63,72116.8,-12.55,-14.29,-14.29,0,*6F
1509361459.85,41230,8.63,72116.8,-12.53,-14.43,-14.43,0,*61
1509361461.15,41231,8.63,72106.0,-12.53,-14.43,-14.47,0,*64
1509361462.42,41232,8.63,72098.3,-12.53,-14.89,-14.97,0,*6C
1509361463.69,41233,8.63,72080.3,-12.53,-14.97,-14.89,0,*6D
1509361464.93,41234,8.63,72086.8,-12.55,-15.25,-15.35,0,*62
1509361466.2,41235,8.63,72090.0,-12.55,-15.57,-15.57,0,*62
1509361467.44,41236,8.63,72086.5,-12.57,-15.99,-15.99,0,*63
1509361468.71,41237,8.63,72050.3,-12.59,-15.39,-15.39,0,*6C
1509361469.94,41238,8.63,72038.0,-12.59,-15.49,-15.49,0,*63
1509361471.22,41239,8.63,72052.0,-12.59,-15.81,-15.81,0,*62
1509361472.45,41240,8.63,72038.0,-12.63,-15.63,-15.53,0,*66
1509361473.68,41241,8.63,72024.8,-12.63,-15.53,-15.53,0,*64
1509361474.98,41242,8.63,72012.8,-12.65,-15.39,-15.39,0,*61
1509361476.27,41243,8.63,71976.3,-12.65,-15.43,-15.43,0,*60
1509361477.54,41244,8.63,71954.0,-12.65,-15.67,-15.57,0,*64
1509361478.82,41245,8.63,71938.8,-12.65,-15.53,-15.39,0,*6A
1509361480.11,41246,8.63,71930.8,-12.65,-14.83,-14.83,0,*65
1509361481.35,41247,8.63,71920.0,-12.65,-15.11,-15.11,0,*64
1509361482.64,41248,8.63,71914.5,-12.65,-14.93,-14.79,0,*6F
1509361483.93,41249,8.63,71912.0,-12.65,-14.79,-14.55,0,*64
1509361485.2,41250,8.63,71910.0,-12.65,-14.79,-14.69,0,*63
1509361486.46,41251,8.63,71924.5,-12.65,-15.21,-15.11,0,*60
1509361487.72,41252,8.63,71938.5,-12.65,-14.79,-14.69,0,*61
1509361489.01,41253,8.63,71942.8,-12.65,-14.79,-14.79,0,*61
1509361490.23,41254,8.63,71946.3,-12.67,-15.11,-15.11,0,*64
1509361491.45,41255,8.63,71950.3,-12.67,-14.65,-14.65,0,*65
1509361492.72,41256,8.63,71950.8,-12.67,-14.51,-14.51,0,*66
1509361493.94,41257,8.63,71956.3,-12.67,-14.37,-14.37,0,*67
1509361495.17,41258,8.63,71968.8,-12.67,-14.23,-14.23,0,*68
1509361496.47,41259,8.63,71978.0,-12.65,-14.83,-14.83,0,*6B
1509361497.71,41260,8.63,71988.3,-12.67,-14.65,-14.79,0,*6E
1509361498.95,41261,8.63,72006.5,-12.65,-14.65,-14.65,0,*60
1509361500.25,41262,8.63,72010.0,-12.65,-14.51,-14.55,0,*67
1509361501.5,41263,8.63,72016.5,-12.67,-14.79,-14.65,0,*6D
1509361502.75,41264,8.63,72022.5,-12.67,-14.51,-14.37,0,*67
1509361504.05,41265,8.63,72028.0,-12.65,-14.51,-14.47,0,*63
1509361505.35,41266,8.63,72032.0,-12.65,-14.55,-14.47,0,*64
1509361506.63,41267,8.63,72030.8,-12.65,-14.47,-14.37,0,*61
1509361507.9,41268,8.63,72032.0,-12.63,-14.05,-14.05,0,*6F
1509361509.15,41269,8.63,72050.8,-12.65,-14.33,-14.33,0,*68
1509361510.4,41270,8.63,72058.8,-12.65,-14.23,-14.23,0,*60
1509361511.64,41271,8.63,72074.0,-12.65,-14.23,-14.19,0,*68
1509361512.87,41272,8.63,72074.8,-12.63,-14.19,-14.19,0,*64
1509361514.09,41273,8.63,72078.5,-12.63,-14.29,-14.29,0,*65
1509361515.37,41274,8.63,72084.5,-12.63,-14.05,-14.01,0,*66
1509361516.61,41275,8.63,72084.8,-12.63,-14.15,-14.15,0,*63
1509361517.85,41276,8.63,72090.5,-12.63,-13.93,-13.87,0,*65
1509361519.06,41277,8.63,72086.5,-12.63,-13.93,-13.93,0,*61
1509361520.32,41278,8.63,72096.3,-12.63,-14.19,-14.05,0,*63
1509361521.56,41279,8.63,72092.8,-12.63,-13.93,-13.87,0,*6A
1509361522.84,41280,8.63,72100.3,-12.63,-14.05,-14.05,0,*69
1509361524.09,41281,8.63,72104.3,-12.63,-14.01,-13.93,0,*64
1509361525.32,41282,8.63,72110.0,-12.59,-13.93,-13.87,0,*67
1509361526.63,41283,8.63,72114.5,-12.57,-13.97,-13.97,0,*6D
1509361527.89,41284,8.63,72114.8,-12.59,-13.87,-13.87,0,*64
1509361529.2,41285,8.63,72116.0,-12.57,-13.97,-13.97,0,*6B
1509361530.48,41286,8.63,72116.5,-12.59,-14.05,-14.05,0,*66
1509361531.76,41287,8.63,72126.3,-12.59,-14.01,-14.01,0,*67
1509361533.06,41288,8.63,72126.0,-12.57,-14.01,-14.01,0,*66
1509361534.33,41289,8.63,72128.5,-12.57,-14.11,-14.01,0,*66
1509361535.64,41290,8.63,72130.8,-12.57,-13.97,-14.01,0,*67
1509361536.91,41291,8.63,72138.5,-12.57,-14.11,-14.01,0,*6F
1509361538.21,41292,8.63,72138.5,-12.57,-13.97,-14.01,0,*65
1509361539.49,41293,8.63,72138.0,-12.57,-14.11,-13.97,0,*65
1509361540.74,41294,8.63,72138.8,-12.57,-14.11,-14.15,0,*6F
1509361541.99,41295,8.63,72146.5,-12.57,-14.11,-14.15,0,*6E
1509361543.23,41296,8.63,72144.0,-12.57,-14.15,-14.11,0,*6D
1509361544.53,41297,8.63,72142.3,-12.57,-13.83,-13.87,0,*6C
1509361545.82,41298,8.63,72138.0,-12.57,-14.01,-13.87,0,*6E
1509361547.1,41299,8.56,72146.0,-12.55,-13.97,-13.97,0,*64
1509361548.38,41300,8.63,72150.5,-12.53,-14.15,-14.01,0,*66
1509361549.61,41301,8.63,72152.0,-12.55,-14.23,-14.23,0,*64
1509361550.85,41302,8.63,72150.5,-12.55,-14.61,-14.55,0,*60
1509361552.14,41303,8.63,72140.0,-12.53,-14.75,-14.75,0,*60
1509361553.43,41304,8.63,72150.3,-12.53,-14.97,-14.83,0,*62
1509361554.68,41305,8.63,72150.3,-12.59,-15.07,-15.01,0,*6A
1509361555.94,41306,8.63,72150.3,-12.57,-15.15,-15.01,0,*64
1509361557.21,41307,8.63,72148.5,-12.59,-15.21,-15.01,0,*6C
1509361558.44,41308,8.63,72138.5,-12.59,-15.15,-15.25,0,*62
1509361559.69,41309,8.63,72134.0,-12.59,-15.81,-15.75,0,*6B
1509361560.94,41310,8.63,72132.3,-12.57,-15.49,-15.29,0,*60
1509361562.16,41311,8.63,72122.5,-12.59,-15.49,-15.29,0,*6F
1509361563.46,41312,8.63,72130.0,-12.65,-15.57,-15.43,0,*60
1509361564.71,41313,8.63,72120.8,-12.63,-15.39,-15.07,0,*6F
1509361565.93,41314,8.63,72088.8,-12.63,-15.07,-14.89,0,*62
1509361567.18,41315,8.63,72090.0,-12.65,-15.25,-15.25,0,*62
1509361568.45,41316,8.63,72096.3,-12.65,-15.67,-15.43,0,*67
1509361569.71,41317,8.63,72126.8,-12.63,-15.53,-15.39,0,*6A
1509361571.0,41318,8.63,72122.5,-12.65,-15.43,-15.35,0,*6E
1509361572.27,41319,8.63,72112.0,-12.65,-15.07,-14.93,0,*62
1509361573.56,41320,8.63,72108.0,-12.65,-15.35,-15.21,0,*61
1509361574.83,41321,8.63,72084.8,-12.65,-15.07,-14.97,0,*6D
1509361576.07,41322,8.63,72070.8,-12.67,-15.15,-15.01,0,*61
1509361577.36,41323,8.63,72062.8,-12.65,-14.97,-14.83,0,*62
1509361578.62,41324,8.63,72058.8,-12.67,-14.93,-14.79,0,*66
1509361579.91,41325,8.63,72072.5,-12.65,-14.97,-14.83,0,*64
1509361581.16,41326,8.63,72058.8,-12.67,-15.53,-15.43,0,*61
1509361582.43,41327,8.56,72030.3,-12.67,-15.35,-15.21,0,*64
1509361583.67,41328,8.63,72022.0,-12.67,-15.39,-15.11,0,*64
1509361584.9,41329,8.63,72004.8,-12.67,-15.25,-15.11,0,*68
1509361586.16,41330,8.63,71996.3,-12.67,-14.75,-14.55,0,*65
1509361587.37,41331,8.63,72000.0,-12.67,-14.69,-14.61,0,*6E
1509361588.62,41332,8.63,72006.0,-12.67,-14.89,-14.75,0,*66
1509361589.89,41333,8.63,72012.0,-12.67,-14.55,-14.47,0,*67
1509361591.13,41334,8.63,72014.8,-12.67,-14.69,-14.55,0,*6C
1509361592.39,41335,8.56,72008.8,-12.67,-15.01,-14.97,0,*6C
1509361593.63,41336,8.56,72008.5,-12.67,-14.75,-14.69,0,*6C
1509361594.87,41337,8.63,72012.5,-12.67,-14.61,-14.51,0,*63
1509361596.12,41338,8.63,72016.0,-12.67,-14.65,-14.55,0,*6C
1509361597.34,41339,8.63,72018.3,-12.67,-14.37,-14.33,0,*6A
1509361598.56,41340,8.63,72014.8,-12.67,-14.29,-14.23,0,*6A
1509361599.81,41341,8.63,72012.0,-12.67,-14.51,-14.33,0,*65
1509361601.05,41342,8.63,72022.5,-12.67,-14.83,-14.69,0,*66
1509361602.33,41343,8.63,72038.3,-12.67,-14.55,-14.47,0,*60
1509361603.57,41344,8.56,72044.5,-12.67,-14.79,-14.69,0,*65
1509361604.85,41345,8.63,72044.8,-12.67,-14.51,-14.47,0,*62
1509361606.1,41346,8.63,72046.0,-12.67,-14.47,-14.37,0,*61
1509361607.31,41347,8.63,72046.0,-12.67,-14.69,-14.61,0,*6F
1509361608.55,41348,8.63,72034.0,-12.67,-15.07,-14.97,0,*60
1509361609.82,41349,8.63,72036.5,-12.67,-14.93,-14.79,0,*6D
1509361611.09,41350,8.63,72036.0,-12.67,-14.83,-14.75,0,*68
1509361612.34,41351,8.63,72020.0,-12.67,-14.83,-14.69,0,*64
1509361613.55,41352,8.63,72014.0,-12.67,-15.11,-15.07,0,*64
1509361614.82,41353,8.63,72026.0,-12.67,-15.01,-14.97,0,*6C
1509361616.06,41354,8.56,72022.8,-12.67,-14.65,-14.51,0,*62
1509361617.32,41355,8.63,72030.3,-12.67,-14.79,-14.55,0,*6A
1509361618.58,41356,8.63,72038.0,-12.67,-14.47,-14.37,0,*60
1509361619.8,41357,8.63,72038.8,-12.67,-14.37,-14.23,0,*63
1509361621.02,41358,8.63,72044.0,-12.67,-14.37,-14.23,0,*6C
1509361622.24,41359,8.63,72044.5,-12.67,-14.33,-14.23,0,*69
1509361623.46,41360,8.63,72050.8,-12.67,-14.33,-14.23,0,*63
1509361624.69,41361,8.63,72052.3,-12.67,-14.23,-14.23,0,*63
1509361625.97,41362,8.63,72054.3,-12.67,-14.05,-13.97,0,*6C
1509361627.22,41363,8.63,72054.5,-12.67,-14.19,-14.05,0,*6C
1509361628.47,41364,8.63,72052.8,-12.67,-14.11,-14.05,0,*63
1509361629.72,41365,8.63,72054.8,-12.67,-14.11,-13.97,0,*6E
1509361630.98,41366,8.63,72058.5,-12.63,-14.11,-13.97,0,*69
1509361632.27,41367,8.63,72054.8,-12.65,-13.97,-13.83,0,*62
1509361633.53,41368,8.63,72052.0,-12.65,-13.93,-13.79,0,*6C
1509361634.77,41369,8.63,72048.8,-12.63,-13.93,-13.79,0,*6B
1509361636.03,41370,8.63,72044.8,-12.65,-13.83,-13.69,0,*65
1509361637.28,41371,8.63,72048.8,-12.63,-13.79,-13.73,0,*6C
1509361638.55,41372,8.63,72048.0,-12.63,-14.01,-13.87,0,*6C
1509361639.81,41373,8.63,72050.8,-12.63,-14.19,-14.01,0,*6D
1509361641.05,41374,8.63,72050.5,-12.63,-13.93,-13.79,0,*67
1509361642.28,41375,8.63,72054.5,-12.63,-13.93,-13.79,0,*66
1509361643.56,41376,8.63,72062.3,-12.59,-14.01,-13.87,0,*61
1509361644.84,41377,8.63,72066.3,-12.59,-14.05,-14.01,0,*6D
1509361646.09,41378,8.63,72062.8,-12.59,-14.47,-14.29,0,*6E
1509361647.35,41379,8.63,72066.0,-12.59,-14.51,-14.29,0,*68
1509361648.59,41380,8.63,72068.8,-12.59,-14.33,-14.05,0,*64
1509361649.85,41381,8.56,72066.3,-12.59,-14.47,-14.29,0,*68
1509361651.1,41382,8.63,72068.8,-12.59,-14.51,-14.29,0,*6C
1509361652.35,41383,8.63,72070.0,-12.59,-14.51,-14.33,0,*66
1509361653.63,41384,8.63,72070.0,-12.59,-14.47,-14.43,0,*61
1509361654.88,41385,8.63,72070.5,-12.59,-14.47,-14.33,0,*67
1509361656.13,41386,8.63,72070.3,-12.59,-14.43,-14.29,0,*6B
1509361657.38,41387,8.63,72072.3,-12.59,-14.47,-14.33,0,*65
1509361658.65,41388,8.63,72076.5,-12.59,-14.51,-14.43,0,*6A
1509361659.91,41389,8.63,72080.5,-12.63,-14.47,-14.33,0,*62
1509361661.16,41390,8.63,72082.3,-12.63,-14.43,-14.29,0,*65
1509361662.38,41391,8.63,72086.3,-12.59,-14.33,-14.19,0,*69
1509361663.6,41392,8.63,72088.8,-12.59,-14.33,-14.15,0,*66
1509361664.86,41393,8.63,72090.8,-12.63,-14.15,-14.01,0,*6F
1509361666.11,41394,8.63,72090.5,-12.63,-14.29,-14.05,0,*63
1509361667.36,41395,8.63,72088.5,-12.59,-14.19,-14.01,0,*6C
1509361668.61,41396,8.63,72090.3,-12.59,-14.05,-13.93,0,*6E
1509361669.86,41397,8.63,72092.8,-12.59,-14.01,-13.93,0,*6B
1509361671.11,41398,8.63,72092.3,-12.59,-14.05,-13.93,0,*60
1509361672.35,41399,8.63,72096.8,-12.59,-14.43,-14.29,0,*65
1509361673.62,41400,8.63,72092.5,-12.57,-14.15,-13.87,0,*6C
1509361674.9,41401,8.63,72086.3,-12.59,-14.05,-13.79,0,*63
1509361676.14,41402,8.63,72086.8,-12.59,-13.87,-13.73,0,*67
1509361677.37,41403,8.63,72098.3,-12.59,-13.93,-13.79,0,*69
1509361678.65,41404,8.63,72108.3,-12.57,-13.97,-13.73,0,*6E
1509361679.89,41405,8.63,72108.0,-12.57,-14.29,-14.23,0,*6F
1509361681.14,41406,8.63,72102.5,-12.59,-14.51,-14.33,0,*6C
1509361682.36,41407,8.63,72096.3,-12.59,-14.61,-14.33,0,*6E
1509361683.63,41408,8.63,72104.3,-12.59,-14.51,-14.43,0,*65
1509361684.88,41409,8.63,72118.5,-12.59,-14.19,-14.05,0,*6A
1509361686.1,41410,8.56,72112.0,-12.59,-14.29,-14.19,0,*6C
1509361687.36,41411,8.63,72114.0,-12.59,-14.47,-14.33,0,*6D
1509361688.61,41412,8.56,72128.5,-12.59,-14.61,-14.47,0,*69
1509361689.85,41413,8.56,72124.8,-12.59,-15.07,-14.93,0,*60
1509361691.12,41414,8.63,72124.5,-12.59,-15.39,-15.35,0,*67
1509361692.37,41415,8.63,72116.3,-12.63,-15.35,-15.15,0,*61
1509361693.64,41416,8.56,72106.8,-12.65,-15.25,-15.35,0,*67
1509361694.92,41417,8.56,72078.0,-12.65,-15.39,-15.25,0,*6A
1509361696.15,41418,8.56,72058.0,-12.65,-15.67,-15.67,0,*68
1509361697.42,41419,8.56,72042.3,-12.65,-15.71,-15.57,0,*6D
1509361698.69,41420,8.56,72032.0,-12.67,-15.35,-15.35,0,*61
1509361699.97,41421,8.63,72008.5,-12.67,-15.39,-15.39,0,*60
1509361701.22,41422,8.63,72002.0,-12.67,-15.43,-15.29,0,*6F